Tracking 17636 objects as of 30-April-2016
HD Live streaming from Space Station
objects crossing your sky now

CHINASAT 5B (SINOSAT 1)

Track CHINASAT 5B (SINOSAT 1) now!
CHINASAT 5B (SINOSAT 1) is classified as:


NORAD ID: 25404
Int'l Code: 1998-044A
Perigee: 36,066.3 km
Apogee: 36,140.9 km
Inclination: 3.6 °
Period: 1,452.0 minutes
Semi major axis: 42474 km
RCS: 25.1188 m2 (large)
Launch date: July 18, 1998
Source: People's Republic of China (PRC)
Launch site: Xichang Space Center, China (XSC)

11 C-band, broadcasting, business services, direct-to-home TV broadcasting, telecommunications, VSAT networks; Asia Pacific region.
Your satellite tracking list
Your tracking list is empty





NASA's NSSDC Master Catalog

Two Line Element Set (TLE):
1 25404U 98044A   16119.89809929 +.00000087 +00000-0 +00000-0 0  9997
2 25404 003.6261 068.0869 0008785 144.5438 021.2511 00.99176590065198
Source of the keplerian elements: AFSPC

N2YO: 341